Home > Time Zones > World Clock > Weather > Japan > Tokyo > Past weeks

Flag for Japan Weather past 2 weeks in Tokyo, Japan

Now
41 °F

Quite cool.


Feels Like: 37 °F
Forecast: 41 / 53 °F
Wind: 6 mph from West

Location: Tokyo

Current Time: Feb 27, 2015 at 8:33:14 AM

Latest Report: Feb 27, 2015 at 7:00 AM


Visibility: N/A

Pressure: 29.72 "Hg

Humidity: 95%

Dew point: 40 °F

Location of TokyoLocation

Historic Weather in Tokyo — Graph

°F

Tokyo temperature yesterday

Maximum temperature yesterday: 46 °F (at 12:00 AM)
Minimum temperature yesterday: 43 °F (at 10:00 PM)
Average temperature yesterday: 44 °F

Past Weeks' High & Low Weather Summary

 TemperatureHumidityPressure
High65 °F (Feb 23, 3:00 PM)97% (Feb 23, 1:00 AM)30.40 "Hg (Feb 23, 1:00 AM)
Low32 °F (Feb 14, 3:00 AM)13% (Feb 13, 1:00 PM)29.54 "Hg (Feb 13, 4:00 AM)
Average44 °F64%29.95 "Hg
* Reported Feb 12 7:00 AM — Feb 27 7:00 AM, Tokyo, Weather by CustomWeather, © 2015

Note: Actual official high and low records may vary slightly from our data, if they occured in-between our weather recording intervals... More about our weather records

Advertising

Tokyo weather history for previous 24 hours

 ConditionsComfort  
Time TempWeatherWind HumidityBarometerVisibility
7:00 AM
Fri, Feb 27
41 °FQuite cool.6 mph95%29.72 "HgN/A
6:00 AM41 °FPassing clouds.2 mph96%29.70 "Hg12 mi
5:00 AM40 °FQuite cool.3 mph97%29.67 "HgN/A
4:00 AM42 °FQuite cool.2 mph97%29.67 "HgN/A
3:00 AM41 °FPassing clouds.2 mph97%29.66 "Hg12 mi
2:00 AM40 °FQuite cool.1 mph97%29.68 "HgN/A
1:00 AM40 °FChilly.2 mph96%29.71 "HgN/A
12:00 AM41 °FQuite cool.3 mph95%29.73 "HgN/A
11:00 PM
Thu, Feb 26
43 °FQuite cool.6 mph92%29.77 "HgN/A
10:00 PM43 °FQuite cool.6 mph96%29.80 "HgN/A
9:00 PM43 °FLow clouds.5 mph96%29.83 "Hg3 mi
8:00 PM43 °FQuite cool.6 mph95%29.88 "HgN/A
7:00 PM43 °FQuite cool.9 mph96%29.93 "HgN/A
6:00 PM43 °FLight rain. Low clouds.3 mph96%29.94 "Hg4 mi
5:00 PM43 °FQuite cool.7 mph96%29.98 "HgN/A
4:00 PM43 °FQuite cool.7 mph95%30.01 "HgN/A
9:00 AM44 °FLight rain. Overcast.3 mph77%30.19 "Hg6 mi
8:00 AM44 °FQuite cool.5 mph77%30.20 "HgN/A
Weather by CustomWeather, © 2015

See weather overviewHow to use our weather pages